Zurück zum Katalog

STARLINK-35583

AktivKommunikationVLEO
NORAD 66611·PAYLOAD·🇺🇸 United States

Gestartet Nov 22, 2025 von Cape Canaveral Space Force Station

Loading…

Nächste Überflüge (nächste 24 Stunden)

TLE

AktuellSource: CelesTrak SupGP

Epoche: Sep 15, 2026, 03:29 UTC

1 66611C 25270Z   26258.14562500 -.00031944  00000+0 -11571-2 0  2589
2 66611  43.0000  66.1340 0001501 269.9342  22.7203 15.27591548    15

Verfolge STARLINK-35583 in Echtzeit mit AllMySat

Download on the App Store